Marshfield, WI

3:28 PM CDT on March 25, 2017 (GMT -0500)
Marshfield Municipal

Weather History for KMFI - June, 2014

Change the Weather History Date:

Friday, June 13, 2014

  Actual Average Record
Temperature  
Mean Temperature 58 °F -  
Max Temperature 71 °F 78 °F 93 °F (1987)
Min Temperature 46 °F 53 °F 34 °F (1969)
Degree Days  
Heating Degree Days 7    
Growing Degree Days 8 (Base 50)    
Moisture  
Dew Point 41 °F    
Average Humidity 56    
Maximum Humidity 74    
Minimum Humidity 31    
Precipitation  
Precipitation 0.00 in - - ()
Sea Level Pressure  
Sea Level Pressure 29.97 in    
Wind  
Wind Speed 12 mph (NW)    
Max Wind Speed 23 mph    
Max Gust Speed 30 mph    
Visibility 10 miles    
Events      
Averages and records for this station are not official NWS values.
T = Trace of Precipitation, MM = Missing Value Source: NWS Daily Summary

Daily Weather History Graph

Daily Weather History Graph

Search for Another Location

Airport or City:

Trip Planner

Search our weather history database for the weather conditions in past years. The results will help you decide how hot, cold, wet, or windy it might be!

Date:

Astronomy

Jun. 13, 2014 Rise Set
Actual Time 5:14 AM CDT 8:47 PM CDT
Civil Twilight 4:38 AM CDT 9:23 PM CDT
Nautical Twilight 3:49 AM CDT 10:12 PM CDT
Astronomical Twilight 2:46 AM CDT 11:16 PM CDT
Moon 9:13 PM CDT (6/13) 5:57 AM CDT (6/13)
Length of Visible Light 16h 45m
Length of Day
15h 32m
Full, 100% of the Moon is Illuminated
Jun 13
Full
Jun 19
Last Quarter
Jun 27
New
Jul 5
First Quarter
Jul 12
Full

Hourly Weather History & Observations

Time (CDT) Temp. Dew Point Humidity Pressure Visibility Wind Dir Wind Speed Gust Speed Precip Events Conditions
12:54 AM 55.0 °F 44.1 °F 67% 29.88 in 10.0 mi WNW 6.9 mph - N/A   Overcast
1:54 AM 54.0 °F 37.9 °F 55% 29.89 in 10.0 mi NW 23.0 mph 29.9 mph N/A   Mostly Cloudy
2:54 AM 51.1 °F 37.9 °F 61% 29.90 in 10.0 mi NW 15.0 mph - N/A   Clear
3:54 AM 48.9 °F 37.9 °F 66% 29.91 in 10.0 mi WNW 11.5 mph - N/A   Clear
4:54 AM 48.0 °F 37.9 °F 68% 29.94 in 10.0 mi NW 11.5 mph - N/A   Clear
5:54 AM 46.9 °F 39.0 °F 74% 29.96 in 10.0 mi NNW 11.5 mph - N/A   Clear
6:54 AM 48.9 °F 41.0 °F 74% 29.98 in 10.0 mi NW 12.7 mph - N/A   Clear
7:54 AM 52.0 °F 41.0 °F 66% 30.00 in 10.0 mi NW 13.8 mph - N/A   Clear
8:54 AM 55.9 °F 39.9 °F 55% 30.01 in 10.0 mi NW 18.4 mph 24.2 mph N/A   Clear
10:54 AM 63.0 °F 39.0 °F 41% 30.00 in 10.0 mi NNW 20.7 mph - N/A   Clear
12:54 PM 66.0 °F 39.9 °F 38% 30.01 in 10.0 mi NW 15.0 mph 24.2 mph N/A   Clear
1:54 PM 69.1 °F 39.0 °F 33% 30.00 in 10.0 mi WNW 12.7 mph - N/A   Clear
2:54 PM 70.0 °F 37.9 °F 31% 30.00 in 10.0 mi NNW 16.1 mph 23.0 mph N/A   Clear
6:54 PM 69.1 °F 39.9 °F 35% 29.99 in 10.0 mi NW 9.2 mph - N/A   Clear
7:54 PM 64.9 °F 43.0 °F 45% 29.99 in 10.0 mi WNW 4.6 mph - N/A   Clear
8:54 PM 62.1 °F 44.1 °F 52% 29.98 in 10.0 mi Calm Calm - N/A   Clear
9:54 PM 57.9 °F 45.0 °F 62% 29.99 in 10.0 mi Calm Calm - N/A   Clear
10:54 PM 55.9 °F 44.1 °F 64% 30.00 in 10.0 mi Calm Calm - N/A   Clear
11:54 PM 54.0 °F 45.0 °F 72% 30.01 in 10.0 mi Calm Calm - N/A   Clear